Regional Weather Roundup
Issued by NWS Jackson, KY

Home | Current Version | Previous Version | Text Only | Print | Product List | Glossary Off
Versions: 1 2 3 4 5 6 7 8 9 10 11 12 13 14 15 16 17 18 19 20 21 22 23 24 25 26 27 28 29 30 31 32 33 34 35 36 37 38 39 40 41 42 43 44 45 46 47 48 49 50

000
ASUS43 KJKL 262010
RWRJKL

EAST KENTUCKY HOURLY WEATHER ROUNDUP
NATIONAL WEATHER SERVICE JACKSON KY
400 PM EDT FRI AUG 26 2016

NOTE: "FAIR" INDICATES FEW OR NO CLOUDS BELOW 12,000 FEET WITH
NO SIGNIFICANT WEATHER AND/OR OBSTRUCTIONS TO VISIBILITY.

* THESE REPORTS ARE NOT UNDER NWS QUALITY CONTROL AND MAY NOT
  REPORT WEATHER SUCH AS PRECIPITATION AND FOG.

KYZ079-080-083-085-087-088-110-112-115-119-120-262100
...EASTERN KENTUCKY...

CITY           SKY/WX    TMP DP  RH WIND       PRES   REMARKS
JACKSON        SUNNY     88  70  55 CALM      30.14F HX  93
LONDON         SUNNY     88  67  49 NE6       30.11F HX  91
SOMERSET*      SUNNY     90  66  45 E3        30.10F HX  92
MONTICELLO*    MOSUNNY  N/A N/A N/A N16G22    30.10F
WILLIAMSBURG*  PTCLDY    90  73  58 NE7       30.10F HX  98
MIDDLESBORO*   PTSUNNY   91  71  53 NE8       30.11F HX  97
HARLAN APT*    PTCLDY    90  64  43 CALM      30.13F HX  91
PIKE CO APT*     N/A     88  69  52 N6        30.15F HX  92
BIG SANDY APT* MOCLDY    90  70  51 CALM      30.13F HX  95
MOREHEAD APT*  CLEAR     90  68  48 CALM      30.13F HX  93
ASHLAND*       PTSUNNY   93  73  52 CALM      30.07F HX 102
$$

KYZ035-036-041-042-044-050-067-078-099-262100
...CENTRAL KENTUCKY...

CITY           SKY/WX    TMP DP  RH WIND       PRES   REMARKS
MT STERLING*   MOSUNNY   90  70  51 SE3       30.13F HX  95
FLEMING/MASON* PTSUNNY   90  70  51 CALM      30.12F HX  95
DANVILLE*      SUNNY     88  68  51 NE6       30.11F HX  91
LEXINGTON      PTSUNNY   92  68  45 CALM      30.10F HX  96
FRANKFORT      SUNNY     91  67  44 SE7       30.08F HX  94
LOUISVILLE     PTSUNNY   91  68  46 E7        30.05F HX  95
LEBANON*         N/A     91  66  43 NE5       30.09F HX  94
GLASGOW*       SUNNY     92  70  47 E3        30.07F HX  98
BOWLING GREEN  PTSUNNY   94  74  52 VRB5      30.05F HX 104
$$

KYZ091>093-OHZ055-061-077-WVZ005-015-034-035-042-262100
...SOUTHERN OHIO/WEST VIRGINIA...

CITY           SKY/WX    TMP DP  RH WIND       PRES   REMARKS
COVINGTON      PTSUNNY   89  72  56 CALM      30.08F HX  96
COLUMBUS       MOSUNNY   87  71  58 N9        30.10F HX  93
DAYTON         MOSUNNY   89  71  55 N8        30.12F HX  95
WILMINGTON     PTSUNNY   85  74  69 E5        30.11F HX  92
HUNTINGTON     SUNNY     92  72  51 W5        30.10F HX  99
CHARLESTON     PTSUNNY   89  69  51 SE3       30.11F HX  93
PINEVILLE*     SUNNY     91  62  38 MISG      30.20F HX  91
BECKLEY        SUNNY     84  65  52 N8        30.21F
BLUEFIELD      MOSUNNY   85  66  53 VRB3      30.23F
LOGAN CO APT*    N/A     88  72  58 CALM      30.15F HX  94
$$

VAZ002-007-008-TNZ017-027-036-066-071-262100
...SOUTHWEST VIRGINIA/EAST TENNESSEE...

CITY           SKY/WX    TMP DP  RH WIND       PRES   REMARKS
WISE*          SUNNY     86  55  35 NW3       30.23F
JONESVILLE*      N/A     90  68  48 CALM      30.14F HX  93
ABINGDON*      SUNNY     89  65  43 CALM      30.17F HX  91
BRISTOL        MOSUNNY   91  66  43 CALM      30.13F HX  93
MORRISTOWN*    MOCLDY    91  70  49 E8        30.10F HX  97
SEVIERVILLE*   CLEAR     91  68  46 E10       30.07F HX  95
KNOXVILLE      MOSUNNY   94  66  39 E14G22    30.06F HX  97
CROSSVILLE     MOSUNNY   89  68  49 E10       30.13F HX  93
NASHVILLE      MOSUNNY   94  71  47 E10       30.05F HX 101
$$

...KEY TO REMARKS...
VSB - VISIBILITY IN MILES
WCI - WIND CHILL INDEX
HX  - HEAT INDEX

$$



USA.gov is the U.S. government's official web portal to all federal, state and local government web resources and services.